Simultaneous Nadir Overpasses (SNOs) Predictions

Prediction of SNOs between AQUA and NPP Satellite Orbit:

Table of predicted SNOs for the next 14.0 days since TLE Epoch: 11/11/2011
Index Date (AQUA) Time (AQUA) Lat,Lon (AQUA) SZA (AQUA ) Date (NPP) Time (NPP) Lat,Lon (NPP) SZA (NPP ) Distance(km) Time Diff (sec)
1 11/13/2011 20:09:58 -73.98, -68.77 63.99 11/13/2011 20:08:53 -73.97, -68.82 63.91 1.79 65
2 11/13/2011 20:58:57 75.32, 102.22 114.67 11/13/2011 20:59:07 75.32, 102.13 114.68 2.62 10
3 11/16/2011 14:05:11 -74.21, 22.92 63.51 11/16/2011 14:04:10 -74.21, 22.91 63.44 0.34 61
4 11/16/2011 14:54:10 75.54,-166.00 115.15 11/16/2011 14:54:24 75.53,-166.04 115.15 1.12 14
5 11/19/2011 08:00:27 -74.15, 113.98 62.78 11/19/2011 07:59:30 -74.14, 113.92 62.70 2.06 57
6 11/19/2011 08:49:17 75.92, -73.68 115.43 11/19/2011 08:49:34 75.93, -73.58 115.39 2.80 17
7 11/22/2011 01:55:39 -74.27,-154.55 62.26 11/22/2011 01:54:45 -74.27,-154.59 62.19 1.45 54
8 11/22/2011 02:44:39 75.54, 16.39 116.46 11/22/2011 02:45:00 75.54, 16.31 116.46 2.52 21
9 11/24/2011 19:50:45 -74.63, -62.50 62.01 11/24/2011 19:49:53 -74.63, -62.45 61.97 1.55 52




NCC Satellite Simultaneous Nadir Overpasses (SNOs) Prediction Service
